Вернуться в каталог

COSMOS 970 DEB

АктивенLEO
NORAD 65007·DEBRIS·🇷🇺 Russia

Запущен Dec 21, 1977 с Baikonur Cosmodrome

Loading…

Ближайшие Пролёты (ближайшие 24 часа)

TLE

СвежийSource: Space-Track

Эпоха: Sep 14, 2026, 10:10 UTC

1 65007U 77121DU  26257.42429782  .00000116  00000-0  21157-3 0  9993
2 65007  65.8382 237.0551 0122209 116.2138 323.5678 13.69906392640320

Отслеживайте COSMOS 970 DEB в реальном времени с AllMySat

Download on the App Store